FW8528 Weather Reports


Display with metric or nautical units.
time (UTC)temp
F
wind
direction
speed
MPH
gust
MPH
rain 1hr
in
rain 24hr
in
rain mn
in
humidity
%
barometer
mb
20260905234653 68 276 0.0 0.0 0.00 0.00 0.00 62 1015.8
20260905234143 69 256 0.0 0.0 0.00 0.00 0.00 63 1015.8
20260905233638 69 231 1.0 1.0 0.00 0.00 0.00 59 1015.8
20260905233137 69 240 1.0 1.0 0.00 0.00 0.00 62 1015.8
20260905232633 68 207 1.0 1.0 0.00 0.00 0.00 60 1015.8
20260905232128 71 126 4.0 5.0 0.00 0.00 0.00 55 1015.8
20260905231623 71 249 0.0 1.0 0.00 0.00 0.00 56 1015.8
20260905231119 72 187 2.0 2.0 0.00 0.00 0.00 57 1015.8
20260905230615 72 213 1.0 1.0 0.00 0.00 0.00 56 1015.8
20260905230113 73 241 3.0 3.0 0.00 0.00 0.00 52 1016.2
20260905225612 72 294 1.0 1.0 0.00 0.00 0.00 55 1015.8
20260905225108 72 192 3.0 3.0 0.00 0.00 0.00 53 1016.2
20260905224608 72 233 1.0 1.0 0.00 0.00 0.00 54 1016.2
20260905224107 72 203 1.0 2.0 0.00 0.00 0.00 56 1016.2
20260905223604 72 229 1.0 1.0 0.00 0.00 0.00 56 1015.8
20260905223101 70 222 1.0 1.0 0.00 0.00 0.00 58 1016.2
20260905222601 71 248 1.0 1.0 0.00 0.00 0.00 56 1016.2
20260905222056 71 211 1.0 1.0 0.00 0.00 0.00 55 1016.2
20260905221552 71 204 1.0 1.0 0.00 0.00 0.00 55 1016.2
20260905221048 71 156 2.0 2.0 0.00 0.00 0.00 56 1016.6
20260905220543 71 298 2.0 2.0 0.00 0.00 0.00 57 1015.8
20260905220039 71 206 4.0 5.0 0.00 0.00 0.00 57 1016.2
20260905215538 71 341 1.0 2.0 0.00 0.00 0.00 60 1016.2
20260905215035 70 181 2.0 2.0 0.00 0.00 0.00 58 1016.6
20260905214531 70 188 3.0 3.0 0.00 0.00 0.00 57 1016.6
20260905214025 71 130 2.0 3.0 0.00 0.00 0.00 56 1016.6
20260905213521 71 177 2.0 3.0 0.00 0.00 0.00 58 1016.6
20260905213016 71 266 1.0 1.0 0.00 0.00 0.00 55 1016.6
20260905212511 70 166 3.0 3.0 0.00 0.00 0.00 57 1016.6
20260905212010 69 198 1.0 1.0 0.00 0.00 0.00 64 1016.6
20260905211506 68 259 3.0 5.0 0.00 0.00 0.00 63 1016.9
20260905211001 69 177 2.0 2.0 0.00 0.00 0.00 62 1016.9
20260905210457 70 241 5.0 7.0 0.00 0.00 0.00 61 1016.9
20260905205956 69 163 4.0 6.0 0.00 0.00 0.00 62 1016.6
20260905205451 70 161 2.0 2.0 0.00 0.00 0.00 63 1016.9
20260905204949 69 185 3.0 3.0 0.00 0.00 0.00 62 1016.9
20260905204445 68 286 2.0 2.0 0.00 0.00 0.00 64 1016.9
20260905203945 67 175 1.0 2.0 0.00 0.00 0.00 67 1016.9
20260905203440 70 114 2.0 2.0 0.00 0.00 0.00 64 1016.9
20260905202936 71 214 0.0 1.0 0.00 0.00 0.00 63 1016.9
20260905202431 69 181 2.0 2.0 0.00 0.00 0.00 64 1016.9
20260905201926 68 259 2.0 3.0 0.00 0.00 0.00 68 1016.9
20260905201421 68 261 0.0 1.0 0.00 0.00 0.00 71 1016.9
20260905200915 70 173 5.0 6.0 0.00 0.00 0.00 63 1016.9
20260905200411 70 93 1.0 3.0 0.00 0.00 0.00 65 1016.9
20260905195909 68 202 1.0 1.0 0.00 0.00 0.00 66 1017.2
20260905195405 70 205 4.0 6.0 0.00 0.00 0.00 64 1017.2
20260905194900 69 301 2.0 3.0 0.00 0.00 0.00 65 1017.2
20260905194400 68 200 2.0 3.0 0.00 0.00 0.00 67 1017.2
20260905193900 69 330 2.0 2.0 0.00 0.00 0.00 66 1017.2
20260905193354 69 145 2.0 2.0 0.00 0.00 0.00 64 1017.2
20260905192850 68 203 3.0 5.0 0.00 0.00 0.00 64 1017.6
20260905192346 68 177 3.0 6.0 0.00 0.00 0.00 66 1017.6
20260905191845 68 184 3.0 3.0 0.00 0.00 0.00 66 1017.2
20260905191345 67 323 1.0 2.0 0.00 0.00 0.00 71 1017.6
20260905190843 67 168 5.0 7.0 0.00 0.00 0.00 66 1017.6
20260905190337 67 139 4.0 6.0 0.00 0.00 0.00 67 1017.2
20260905185835 67 239 0.0 0.0 0.00 0.00 0.00 72 1017.6
20260905185331 67 222 5.0 8.0 0.00 0.00 0.00 64 1017.6
20260905184830 66 175 1.0 2.0 0.00 0.00 0.00 66 1017.6
20260905184329 66 208 2.0 3.0 0.00 0.00 0.00 68 1017.6
20260905183827 66 179 3.0 3.0 0.00 0.00 0.00 68 1017.6
20260905183323 65 235 1.0 2.0 0.00 0.00 0.00 72 1017.6
20260905182818 66 241 2.0 3.0 0.00 0.00 0.00 72 1017.9
20260905182318 65 204 1.0 1.0 0.00 0.00 0.00 73 1017.6
20260905181813 65 196 2.0 3.0 0.00 0.00 0.00 72 1017.6
20260905181313 65 211 3.0 5.0 0.00 0.00 0.00 76 1017.6
20260905180812 64 184 3.0 5.0 0.00 0.00 0.00 74 1017.9
20260905180307 63 180 1.0 2.0 0.00 0.00 0.00 78 1017.6
20260905175802 62 167 1.0 1.0 0.00 0.00 0.00 79 1017.9
20260905175256 61 222 1.0 2.0 0.00 0.00 0.00 82 1017.9
20260905174752 62 177 3.0 5.0 0.00 0.00 0.00 80 1017.9
20260905174248 61 195 0.0 1.0 0.00 0.00 0.00 86 1017.6
20260905173743 61 187 2.0 3.0 0.00 0.00 0.00 85 1017.6
20260905173239 60 272 0.0 0.0 0.00 0.00 0.00 87 1017.6
20260905172739 60 282 0.0 0.0 0.00 0.00 0.00 90 1017.6
20260905172238 60 158 2.0 3.0 0.00 0.00 0.00 87 1017.6
20260905171734 59 118 3.0 3.0 0.00 0.00 0.00 86 1017.6
20260905171230 59 239 1.0 1.0 0.00 0.00 0.00 89 1017.9
20260905170726 59 137 0.0 1.0 0.00 0.00 0.00 89 1017.6
20260905170222 58 178 1.0 2.0 0.00 0.00 0.00 90 1017.6
20260905165721 57 138 0.0 1.0 0.00 0.00 0.00 94 1017.6
20260905165217 57 264 0.0 0.0 0.00 0.00 0.00 99 1017.6
20260905164717 56 227 0.0 0.0 0.00 0.00 0.00 98 1017.6
20260905164217 56 229 0.0 0.0 0.00 0.00 0.00 99 1017.6
20260905163712 57 238 0.0 0.0 0.00 0.00 0.00 99 1017.6
20260905163209 56 309 0.0 1.0 0.00 0.00 0.00 99 1017.6
20260905162705 55 234 1.0 1.0 0.00 0.00 0.00 99 1017.6
20260905162204 55 183 0.0 1.0 0.00 0.00 0.00 99 1017.2
20260905161659 55 196 1.0 1.0 0.00 0.00 0.00 99 1017.2
20260905161157 56 229 0.0 0.0 0.00 0.00 0.00 99 1017.2
20260905160650 55 274 0.0 0.0 0.00 0.00 0.00 99 1017.6
20260905160149 55 274 0.0 0.0 0.00 0.00 0.00 99 1017.2
20260905155644 55 275 0.0 0.0 0.00 0.00 0.00 99 1017.2
20260905155143 55 252 0.0 0.0 0.00 0.00 0.00 99 1017.6
20260905154638 55 233 0.0 0.0 0.00 0.00 0.00 99 1017.2
20260905154133 54 255 0.0 0.0 0.00 0.00 0.00 99 1017.2
20260905153629 54 255 0.0 0.0 0.00 0.00 0.00 99 1017.6
20260905153124 53 255 0.0 0.0 0.00 0.00 0.00 99 1017.2
20260905152619 53 255 0.0 0.0 0.00 0.00 0.00 99 1017.6
20260905152114 52 255 0.0 0.0 0.00 0.00 0.00 99 1017.2
20260905151609 52 255 0.0 0.0 0.00 0.00 0.00 99 1017.2
20260905151104 51 255 0.0 0.0 0.00 0.00 0.00 99 1017.2
20260905150559 51 255 0.0 0.0 0.00 0.00 0.00 99 1017.2
20260905150057 51 255 0.0 0.0 0.00 0.00 0.00 99 1017.2
20260905145550 50 255 0.0 0.0 0.00 0.00 0.00 99 1017.6
20260905145050 50 255 0.0 0.0 0.00 0.00 0.00 99 1017.2
20260905144545 50 255 0.0 0.0 0.00 0.00 0.00 99 1017.2
20260905144044 50 255 0.0 0.0 0.00 0.00 0.00 99 1017.2
20260905143543 49 255 0.0 0.0 0.00 0.00 0.00 99 1017.2
20260905143039 49 255 0.0 0.0 0.00 0.00 0.00 99 1017.2
20260905142537 49 255 0.0 0.0 0.00 0.00 0.00 99 1017.2
20260905142033 49 255 0.0 0.0 0.00 0.00 0.00 99 1017.2
20260905141527 49 255 0.0 0.0 0.00 0.00 0.00 99 1017.2
20260905141024 48 255 0.0 0.0 0.00 0.00 0.00 99 1017.2
20260905140524 48 255 0.0 0.0 0.00 0.00 0.00 99 1016.9
20260905140023 49 255 0.0 0.0 0.00 0.00 0.00 99 1017.2
20260905135519 48 255 0.0 0.0 0.00 0.00 0.00 99 1017.2
20260905135013 48 255 0.0 0.0 0.00 0.00 0.00 99 1016.9
20260905134508 48 255 0.0 0.0 0.00 0.00 0.00 99 1016.9
20260905134007 48 255 0.0 0.0 0.00 0.00 0.00 99 1016.9
20260905133502 48 255 0.0 0.0 0.00 0.00 0.00 99 1016.9
20260905133001 48 255 0.0 0.0 0.00 0.00 0.00 99 1016.9
20260905132457 48 255 0.0 0.0 0.00 0.00 0.00 99 1016.9
20260905131951 48 255 0.0 0.0 0.00 0.00 0.00 99 1016.9
20260905131447 47 255 0.0 0.0 0.00 0.00 0.00 99 1016.9
20260905130942 47 255 0.0 0.0 0.00 0.00 0.00 99 1016.9
20260905130441 47 255 0.0 0.0 0.00 0.00 0.00 99 1016.9
20260905125941 47 255 0.0 0.0 0.00 0.00 0.00 99 1016.9
20260905125436 47 255 0.0 0.0 0.00 0.00 0.00 99 1016.9
20260905124932 47 255 0.0 0.0 0.00 0.00 0.00 99 1016.6
20260905124428 47 255 0.0 0.0 0.00 0.00 0.00 99 1016.9
20260905123928 47 255 0.0 0.0 0.00 0.00 0.00 99 1016.6
20260905123425 47 255 0.0 0.0 0.00 0.00 0.00 99 1016.9
20260905122920 47 255 0.0 0.0 0.00 0.00 0.00 99 1016.6
20260905122419 47 255 0.0 0.0 0.00 0.00 0.00 99 1016.6
20260905121915 48 255 0.0 0.0 0.00 0.00 0.00 99 1016.9
20260905121410 47 255 0.0 0.0 0.00 0.00 0.00 99 1016.6
20260905120910 47 255 0.0 0.0 0.00 0.00 0.00 99 1016.6
20260905120410 47 255 0.0 0.0 0.00 0.00 0.00 99 1016.6
20260905115904 48 255 0.0 0.0 0.00 0.00 0.00 99 1016.6
20260905115404 48 255 0.0 0.0 0.00 0.00 0.00 99 1016.9
20260905114858 48 255 0.0 0.0 0.00 0.00 0.00 99 1016.6
20260905114358 48 255 0.0 0.0 0.00 0.00 0.00 99 1016.6
20260905113852 47 255 0.0 0.0 0.00 0.00 0.00 99 1016.6
20260905113348 47 255 0.0 0.0 0.00 0.00 0.00 99 1016.6
20260905112842 47 255 0.0 0.0 0.00 0.00 0.00 99 1016.6
20260905112337 47 255 0.0 0.0 0.00 0.00 0.00 99 1016.2
20260905111832 47 255 0.0 0.0 0.00 0.00 0.00 99 1016.6
20260905111327 48 255 0.0 0.0 0.00 0.00 0.00 99 1016.2
20260905110826 48 255 0.0 0.0 0.00 0.00 0.00 99 1016.6
20260905110320 48 255 0.0 0.0 0.00 0.00 0.00 99 1016.2
20260905105816 48 255 0.0 0.0 0.00 0.00 0.00 99 1016.2
20260905105315 48 255 0.0 0.0 0.00 0.00 0.00 99 1016.6
20260905104809 48 255 0.0 0.0 0.00 0.00 0.00 99 1016.6
20260905104306 48 255 0.0 0.0 0.00 0.00 0.00 99 1016.6
20260905103805 48 255 0.0 0.0 0.00 0.00 0.00 99 1016.2
20260905103300 48 255 0.0 0.0 0.00 0.00 0.00 99 1016.6
20260905102756 48 255 0.0 0.0 0.00 0.00 0.00 99 1016.6
20260905102253 48 255 0.0 0.0 0.00 0.00 0.00 99 1016.2
20260905101752 48 255 0.0 0.0 0.00 0.00 0.00 99 1016.6
20260905101251 48 255 0.0 0.0 0.00 0.00 0.00 99 1016.6
20260905100746 48 255 0.0 0.0 0.00 0.00 0.00 99 1016.2
20260905100242 48 255 0.0 0.0 0.00 0.00 0.00 99 1016.2
20260905095741 48 255 0.0 0.0 0.00 0.00 0.00 99 1016.2
20260905095241 48 255 0.0 0.0 0.00 0.00 0.00 99 1016.2
20260905094736 48 255 0.0 0.0 0.00 0.00 0.00 99 1016.2
20260905094231 48 255 0.0 0.0 0.00 0.00 0.00 99 1016.2
20260905093730 48 255 0.0 0.0 0.00 0.00 0.00 99 1015.8
20260905093226 48 255 0.0 0.0 0.00 0.00 0.00 99 1016.2
20260905092721 49 255 0.0 0.0 0.00 0.00 0.00 99 1016.2
20260905092217 50 255 0.0 0.0 0.00 0.00 0.00 99 1016.2
20260905091711 50 255 0.0 0.0 0.00 0.00 0.00 99 1016.2
20260905091206 49 255 0.0 0.0 0.00 0.00 0.00 99 1016.2
20260905090705 50 255 0.0 0.0 0.00 0.00 0.00 99 1016.2
20260905090201 50 255 0.0 0.0 0.00 0.00 0.00 99 1015.8
20260905085659 50 255 0.0 0.0 0.00 0.00 0.00 99 1016.2
20260905085155 50 255 0.0 0.0 0.00 0.00 0.00 99 1016.2
20260905084654 50 255 0.0 0.0 0.00 0.00 0.00 99 1016.2
20260905084149 50 255 0.0 0.0 0.00 0.00 0.00 99 1016.2
20260905083644 50 255 0.0 0.0 0.00 0.00 0.00 99 1016.2
20260905083140 50 255 0.0 0.0 0.00 0.00 0.00 99 1016.6
20260905082636 50 255 0.0 0.0 0.00 0.00 0.00 99 1016.2
20260905082131 50 255 0.0 0.0 0.00 0.00 0.00 99 1016.6
20260905081631 50 255 0.0 0.0 0.00 0.00 0.00 99 1015.8
20260905081126 50 255 0.0 0.0 0.00 0.00 0.00 99 1016.2
20260905080621 50 255 0.0 0.0 0.00 0.00 0.00 99 1016.2
20260905080115 50 255 0.0 0.0 0.00 0.00 0.00 99 1016.2
20260905075614 50 255 0.0 0.0 0.00 0.00 0.00 99 1016.2
20260905075108 50 255 0.0 0.0 0.00 0.00 0.00 99 1016.2
20260905074607 50 255 0.0 0.0 0.00 0.00 0.00 99 1015.8
20260905074103 50 255 0.0 0.0 0.00 0.00 0.00 99 1015.8
20260905073558 50 255 0.0 0.0 0.00 0.00 0.00 99 1016.2
20260905073054 50 255 0.0 0.0 0.00 0.00 0.00 99 1015.8
20260905072553 50 255 0.0 0.0 0.00 0.00 0.00 99 1015.8
20260905072049 50 255 0.0 0.0 0.00 0.00 0.00 99 1015.8
20260905071546 51 255 0.0 0.0 0.00 0.00 0.00 99 1016.2
20260905071040 50 255 0.0 0.0 0.00 0.00 0.00 99 1016.2
20260905070535 50 255 0.0 0.0 0.00 0.00 0.00 99 1015.8
20260905070031 51 255 0.0 0.0 0.00 0.00 0.00 99 1015.8
20260905065529 52 255 0.0 0.0 0.00 0.14 0.14 99 1015.8
20260905065024 51 255 0.0 0.0 0.00 0.14 0.14 99 1015.8
20260905064519 51 255 0.0 0.0 0.00 0.14 0.14 99 1015.8
20260905064014 51 255 0.0 0.0 0.00 0.14 0.14 99 1015.8
20260905063513 51 255 0.0 0.0 0.00 0.14 0.14 99 1015.4
20260905063010 51 255 0.0 0.0 0.00 0.14 0.14 99 1015.8
20260905062509 51 255 0.0 0.0 0.00 0.14 0.14 99 1015.4
20260905062004 51 255 0.0 0.0 0.00 0.14 0.14 99 1015.4
20260905061459 51 255 0.0 0.0 0.00 0.14 0.14 99 1015.4
20260905060958 51 255 0.0 0.0 0.00 0.14 0.14 99 1015.4
20260905060454 51 255 0.0 0.0 0.00 0.14 0.14 99 1015.4
20260905055949 51 255 0.0 0.0 0.00 0.14 0.14 99 1015.4
20260905055448 51 255 0.0 0.0 0.00 0.14 0.14 99 1015.1
20260905054943 51 255 0.0 0.0 0.00 0.14 0.14 99 1015.4
20260905054439 51 255 0.0 0.0 0.00 0.14 0.14 99 1015.1
20260905053939 51 255 0.0 0.0 0.00 0.14 0.14 99 1015.4
20260905053434 51 255 0.0 0.0 0.00 0.14 0.14 99 1015.4
20260905052930 51 254 0.0 0.0 0.00 0.14 0.14 99 1015.1
20260905052428 51 254 0.0 0.0 0.00 0.14 0.14 99 1015.4
20260905051928 51 254 0.0 0.0 0.00 0.14 0.14 99 1015.4
20260905051424 51 254 0.0 0.0 0.00 0.14 0.14 99 1015.1
20260905050922 51 254 0.0 0.0 0.00 0.14 0.14 99 1015.8
20260905050417 51 254 0.0 0.0 0.00 0.14 0.14 99 1015.4
20260905045913 51 254 0.0 0.0 0.00 0.14 0.14 99 1015.4
20260905045408 52 254 0.0 0.0 0.00 0.14 0.14 99 1015.4
20260905044903 52 254 0.0 0.0 0.00 0.14 0.14 99 1015.4
20260905044358 52 254 0.0 0.0 0.00 0.14 0.14 99 1015.4
20260905043856 52 254 0.0 0.0 0.00 0.14 0.14 99 1015.4
20260905043352 52 254 0.0 0.0 0.00 0.14 0.14 99 1015.4
20260905042846 52 254 0.0 0.0 0.00 0.14 0.14 99 1015.4
20260905042346 52 254 0.0 0.0 0.00 0.14 0.14 99 1015.8
20260905041841 53 253 0.0 0.0 0.00 0.14 0.14 99 1015.4
20260905041338 53 254 0.0 0.0 0.00 0.14 0.14 99 1015.4
20260905040838 53 254 0.0 0.0 0.00 0.14 0.14 99 1015.4
20260905040337 53 254 0.0 0.0 0.00 0.14 0.14 99 1015.4
20260905035836 53 253 0.0 0.0 0.00 0.14 0.14 99 1015.8
20260905035332 53 255 0.0 0.0 0.00 0.14 0.14 99 1015.1
20260905034828 53 254 0.0 0.0 0.00 0.14 0.14 99 1015.4
20260905034324 54 255 0.0 0.0 0.00 0.14 0.14 99 1015.4
20260905033822 54 254 0.0 0.0 0.00 0.14 0.14 99 1015.4
20260905033318 55 277 0.0 0.0 0.00 0.14 0.14 99 1015.1
20260905032817 55 276 0.0 0.0 0.00 0.14 0.14 99 1015.1
20260905032313 55 285 1.0 1.0 0.00 0.14 0.14 99 1015.1
20260905031808 55 294 1.0 1.0 0.00 0.14 0.14 99 1015.4
20260905031304 54 290 1.0 2.0 0.00 0.14 0.14 99 1015.1
20260905030759 54 276 1.0 1.0 0.00 0.14 0.14 99 1015.1
20260905030254 54 277 1.0 2.0 0.00 0.14 0.14 99 1015.1
20260905025748 54 281 0.0 1.0 0.00 0.14 0.14 99 1015.1
20260905025244 54 286 1.0 1.0 0.00 0.14 0.14 99 1014.8
20260905024739 54 307 1.0 1.0 0.00 0.14 0.14 99 1014.8
20260905024235 54 280 1.0 1.0 0.00 0.14 0.14 99 1014.8
20260905023735 54 266 0.0 0.0 0.00 0.14 0.14 99 1015.1
20260905023230 54 276 0.0 1.0 0.00 0.14 0.14 99 1014.8
20260905022729 54 278 2.0 2.0 0.00 0.14 0.14 99 1015.1
20260905022225 54 268 0.0 0.0 0.00 0.14 0.14 99 1015.4
20260905021719 54 279 0.0 0.0 0.00 0.14 0.14 99 1015.1
20260905021214 54 248 0.0 0.0 0.00 0.14 0.14 99 1015.1
20260905020709 54 272 0.0 1.0 0.00 0.14 0.14 99 1015.1
20260905020204 54 269 0.0 0.0 0.00 0.14 0.14 99 1015.1
20260905015702 54 277 0.0 0.0 0.07 0.14 0.14 99 1015.1
20260905015157 54 272 1.0 1.0 0.00 0.13 0.13 99 1014.8
20260905014655 55 269 0.0 0.0 0.00 0.13 0.13 99 1015.1
20260905014151 55 267 0.0 0.0 0.00 0.13 0.13 99 1014.8
20260905013648 55 270 0.0 0.0 0.00 0.13 0.13 99 1015.1
20260905013143 55 270 0.0 1.0 0.00 0.13 0.13 99 1014.8
20260905012638 56 270 0.0 0.0 0.24 0.13 0.13 99 1014.4
20260905012134 57 7 1.0 1.0 0.59 0.13 0.13 96 1014.1
20260905011630 58 322 0.0 1.0 0.47 0.08 0.08 93 1014.4
20260905011125 59 307 0.0 1.0 0.12 0.02 0.02 90 1014.4
20260905010620 61 134 1.0 2.0 0.00 0.00 0.00 82 1014.1
20260905010117 64 172 3.0 3.0 0.00 0.00 0.00 70 1014.1
20260905005612 65 169 4.0 6.0 0.00 0.00 0.00 67 1013.7
20260905005107 66 186 2.0 2.0 0.00 0.00 0.00 65 1013.7
20260905004601 67 199 8.0 10.0 0.00 0.00 0.00 63 1013.7
20260905004057 68 220 1.0 1.0 0.00 0.00 0.00 63 1013.4
20260905003553 68 249 1.0 1.0 0.00 0.00 0.00 59 1013.7
20260905003048 67 255 2.0 2.0 0.00 0.00 0.00 60 1013.7
20260905002543 67 157 1.0 1.0 0.00 0.00 0.00 59 1013.4
20260905002038 67 242 0.0 1.0 0.00 0.00 0.00 59 1013.4
20260905001533 66 247 0.0 0.0 0.00 0.00 0.00 59 1013.4
20260905001026 66 179 2.0 3.0 0.00 0.00 0.00 57 1013.4
20260905000522 66 296 0.0 1.0 0.00 0.00 0.00 56 1013.4
20260905000019 67 191 1.0 2.0 0.00 0.00 0.00 57 1013.4
20260904235513 67 188 3.0 3.0 0.00 0.00 0.00 57 1013.4
20260904235013 69 210 2.0 2.0 0.00 0.00 0.00 61 1013.4